{"data":{"norad_id":65502,"epoch":"2026-09-20T19:29:57.842592Z","epoch_age_seconds":84979,"freshness":"FRESH","line1":"1 65502U 25198L   26263.81247503  .00023248  00000+0  69687-3 0  9999","line2":"2 65502  53.1590  80.4619 0001127 116.2019 243.9100 15.34408026 58557","mean_motion":15.34408026,"eccentricity":0.0001127,"inclination_deg":53.159,"raan_deg":80.4619,"arg_perigee_deg":116.2019,"mean_anomaly_deg":243.91,"bstar":0.00069687,"rev_number":5855,"period_min":93.847267193583,"perigee_km":461.90842534106,"apogee_km":463.45034535431,"semimajor_km":6840.8163853477,"source":"CELESTRAK","updated_at":"2026-09-21T09:00:35.643138Z"}}